Year,Month,Day,Hour,Minute,Value (Times are PST for temperature in C)
2008,10,18,00,00,7.40
2008,10,18,00,01,7.40
2008,10,18,00,02,7.40
2008,10,18,00,03,7.40
2008,10,18,00,04,7.40
2008,10,18,00,05,7.40
2008,10,18,00,06,7.40
2008,10,18,00,07,7.40
2008,10,18,00,08,7.40
2008,10,18,00,09,7.40
2008,10,18,00,10,7.40
2008,10,18,00,11,7.40
2008,10,18,00,12,7.40
2008,10,18,00,13,7.40
2008,10,18,01,02,7.00
2008,10,18,01,03,6.90
2008,10,18,01,04,6.90
2008,10,18,01,05,6.90
2008,10,18,01,06,6.80
2008,10,18,01,07,6.80
2008,10,18,01,08,6.80
2008,10,18,01,09,6.80
2008,10,18,01,10,6.70
2008,10,18,01,11,6.70
2008,10,18,01,12,6.60
2008,10,18,01,13,6.60
2008,10,18,01,14,6.60
2008,10,18,01,15,6.60
2008,10,18,01,16,6.50
2008,10,18,01,17,6.40
2008,10,18,01,18,6.40
2008,10,18,01,19,6.40
2008,10,18,01,20,6.30
2008,10,18,01,21,6.30
2008,10,18,01,22,6.30
2008,10,18,01,23,6.20
2008,10,18,01,24,6.20
2008,10,18,01,25,6.20
2008,10,18,01,26,6.20
2008,10,18,01,27,6.20
2008,10,18,01,28,6.20
2008,10,18,01,29,6.20
2008,10,18,01,30,6.10
2008,10,18,01,31,6.10
2008,10,18,01,32,6.10
2008,10,18,01,33,6.10
2008,10,18,01,34,6.00
2008,10,18,01,35,6.00
2008,10,18,01,36,6.00
2008,10,18,01,37,5.90
2008,10,18,01,38,5.90
2008,10,18,01,39,5.90
2008,10,18,01,40,5.80
2008,10,18,01,41,5.80
2008,10,18,01,42,5.80
2008,10,18,01,43,5.80
2008,10,18,01,44,5.70
2008,10,18,01,45,5.70
2008,10,18,01,46,5.70
2008,10,18,01,47,5.70
2008,10,18,01,48,5.70
2008,10,18,01,49,5.70
2008,10,18,01,50,5.70
2008,10,18,01,51,5.70
2008,10,18,01,52,5.70
2008,10,18,01,53,5.60
2008,10,18,01,54,5.60
2008,10,18,01,55,5.60
2008,10,18,01,56,5.60
2008,10,18,01,57,5.50
2008,10,18,01,58,5.50
2008,10,18,01,59,5.50
2008,10,18,02,00,5.50
2008,10,18,02,01,5.50
2008,10,18,02,02,5.40
2008,10,18,02,03,5.40
2008,10,18,02,04,5.40
2008,10,18,02,05,5.40
2008,10,18,02,06,5.40
2008,10,18,02,07,5.40
2008,10,18,02,08,5.40
2008,10,18,02,09,5.40
2008,10,18,02,10,5.40
2008,10,18,02,11,5.40
2008,10,18,02,12,5.30
2008,10,18,02,13,5.30
2008,10,18,02,14,5.30
2008,10,18,02,15,5.30
2008,10,18,02,16,5.30
2008,10,18,02,17,5.30
2008,10,18,02,18,5.30
2008,10,18,02,19,5.30
2008,10,18,02,20,5.30
2008,10,18,02,21,5.30
2008,10,18,02,22,5.30
2008,10,18,02,23,5.30
2008,10,18,02,24,5.30
2008,10,18,02,25,5.30
2008,10,18,02,26,5.30
2008,10,18,02,27,5.20
2008,10,18,02,28,5.20
2008,10,18,02,29,5.20
2008,10,18,02,30,5.20
2008,10,18,02,31,5.20
2008,10,18,02,32,5.20
2008,10,18,02,33,5.20
2008,10,18,02,34,5.20
2008,10,18,02,35,5.20
2008,10,18,02,36,5.20
2008,10,18,02,37,5.20
2008,10,18,02,38,5.10
2008,10,18,02,39,5.10
2008,10,18,02,40,5.10
2008,10,18,02,41,5.10
2008,10,18,02,42,5.10
2008,10,18,02,43,5.10
2008,10,18,02,44,5.10
2008,10,18,02,45,5.10
2008,10,18,02,46,5.10
2008,10,18,02,47,5.10
2008,10,18,02,48,5.10
2008,10,18,02,49,5.10
2008,10,18,02,50,5.10
2008,10,18,02,51,5.10
2008,10,18,02,52,5.10
2008,10,18,02,53,5.10
2008,10,18,02,54,5.10
2008,10,18,02,55,5.10
2008,10,18,02,56,5.10
2008,10,18,02,57,5.10
2008,10,18,02,58,5.10
2008,10,18,02,59,5.10
2008,10,18,03,00,5.10
2008,10,18,03,01,5.10
2008,10,18,03,02,5.10
2008,10,18,03,03,5.10
2008,10,18,03,04,5.10
2008,10,18,03,05,5.10
2008,10,18,03,06,5.10
2008,10,18,03,07,5.10
2008,10,18,03,08,5.10
2008,10,18,03,09,5.10
2008,10,18,03,10,5.10
2008,10,18,03,11,5.10
2008,10,18,03,12,5.10
2008,10,18,03,13,5.10
2008,10,18,03,14,5.10
2008,10,18,03,15,5.10
2008,10,18,03,16,5.00
2008,10,18,03,17,4.90
2008,10,18,03,18,4.90
2008,10,18,03,19,4.90
2008,10,18,03,20,5.00
2008,10,18,03,21,5.00
2008,10,18,03,22,4.90
2008,10,18,03,23,4.90
2008,10,18,03,24,4.90
2008,10,18,03,25,4.90
2008,10,18,03,26,4.90
2008,10,18,03,27,4.90
2008,10,18,03,28,4.90
2008,10,18,03,29,4.90
2008,10,18,03,30,4.90
2008,10,18,03,31,4.90
2008,10,18,03,32,4.90
2008,10,18,03,33,4.90
2008,10,18,03,34,4.90
2008,10,18,03,35,4.90
2008,10,18,03,36,4.90
2008,10,18,03,37,4.90
2008,10,18,03,38,4.90
2008,10,18,03,39,4.90
2008,10,18,03,40,4.90
2008,10,18,03,41,4.90
2008,10,18,03,42,4.90
2008,10,18,03,43,4.90
2008,10,18,03,44,4.90
2008,10,18,03,45,4.90
2008,10,18,03,46,4.90
2008,10,18,03,47,4.90
2008,10,18,03,48,4.90
2008,10,18,03,49,4.90
2008,10,18,03,50,4.90
2008,10,18,03,51,4.90
2008,10,18,03,52,4.90
2008,10,18,03,53,4.90
2008,10,18,03,54,4.90
2008,10,18,03,55,4.90
2008,10,18,03,56,4.90
2008,10,18,03,57,4.90
2008,10,18,03,58,4.90
2008,10,18,03,59,4.80
2008,10,18,04,00,4.80
2008,10,18,04,01,4.90
2008,10,18,04,02,4.90
2008,10,18,04,03,4.90
2008,10,18,04,04,4.90
2008,10,18,04,05,4.90
2008,10,18,04,06,4.90
2008,10,18,04,07,4.90
2008,10,18,04,08,4.80
2008,10,18,04,09,4.80
2008,10,18,04,10,4.80
2008,10,18,04,11,4.80
2008,10,18,04,12,4.80
2008,10,18,04,13,4.70
2008,10,18,04,14,4.70
2008,10,18,04,15,4.70
2008,10,18,04,16,4.70
2008,10,18,04,17,4.70
2008,10,18,04,18,4.70
2008,10,18,04,19,4.70
2008,10,18,04,20,4.70
2008,10,18,04,21,4.70
2008,10,18,04,22,4.70
2008,10,18,04,23,4.70
2008,10,18,04,24,4.60
2008,10,18,04,25,4.60
2008,10,18,04,26,4.60
2008,10,18,04,27,4.60
2008,10,18,04,28,4.60
2008,10,18,04,29,4.60
2008,10,18,04,30,4.60
2008,10,18,04,31,4.60
2008,10,18,04,32,4.60
2008,10,18,04,33,4.60
2008,10,18,04,34,4.60
2008,10,18,04,35,4.60
2008,10,18,04,36,4.60
2008,10,18,04,37,4.60
2008,10,18,04,38,4.60
2008,10,18,04,39,4.60
2008,10,18,04,40,4.60
2008,10,18,04,41,4.60
2008,10,18,04,42,4.60
2008,10,18,04,43,4.60
2008,10,18,04,44,4.60
2008,10,18,04,45,4.60
2008,10,18,04,46,4.60
2008,10,18,04,47,4.60
2008,10,18,04,48,4.60
2008,10,18,04,49,4.60
2008,10,18,04,50,4.60
2008,10,18,04,51,4.60
2008,10,18,04,52,4.60
2008,10,18,04,53,4.60
2008,10,18,04,54,4.60
2008,10,18,04,55,4.60
2008,10,18,04,56,4.60
2008,10,18,04,57,4.60
2008,10,18,04,58,4.60
2008,10,18,04,59,4.60
2008,10,18,05,00,4.60
2008,10,18,05,01,4.60
2008,10,18,05,02,4.60
2008,10,18,05,03,4.60
2008,10,18,05,04,4.60
2008,10,18,05,05,4.60
2008,10,18,05,06,4.50
2008,10,18,05,07,4.50
2008,10,18,05,08,4.50
2008,10,18,05,09,4.50
2008,10,18,05,10,4.50
2008,10,18,05,11,4.40
2008,10,18,05,12,4.40
2008,10,18,05,13,4.40
2008,10,18,05,14,4.40
2008,10,18,05,15,4.30
2008,10,18,05,16,4.30
2008,10,18,05,17,4.30
2008,10,18,05,18,4.30
2008,10,18,05,19,4.30
2008,10,18,05,20,4.30
2008,10,18,05,21,4.30
2008,10,18,05,22,4.30
2008,10,18,05,23,4.30
2008,10,18,05,24,4.30
2008,10,18,05,25,4.30
2008,10,18,05,26,4.30
2008,10,18,05,27,4.40
2008,10,18,05,28,4.40
2008,10,18,05,29,4.40
2008,10,18,05,30,4.40
2008,10,18,05,31,4.40
2008,10,18,05,32,4.40
2008,10,18,05,33,4.30
2008,10,18,05,34,4.30
2008,10,18,05,35,4.30
2008,10,18,05,36,4.30
2008,10,18,05,37,4.20
2008,10,18,05,38,4.20
2008,10,18,05,39,4.20
2008,10,18,05,40,4.20
2008,10,18,05,41,4.20
2008,10,18,05,42,4.20
2008,10,18,05,43,4.20
2008,10,18,05,44,4.20
2008,10,18,05,45,4.20
2008,10,18,05,46,4.20
2008,10,18,05,47,4.20
2008,10,18,05,48,4.20
2008,10,18,05,49,4.20
2008,10,18,05,50,4.20
2008,10,18,05,51,4.20
2008,10,18,05,52,4.20
2008,10,18,05,53,4.20
2008,10,18,05,54,4.10
2008,10,18,05,55,4.10
2008,10,18,05,56,4.10
2008,10,18,05,57,4.10
2008,10,18,05,58,4.10
2008,10,18,05,59,4.00
2008,10,18,06,00,4.00
2008,10,18,06,01,4.00
2008,10,18,06,02,4.00
2008,10,18,06,03,4.00
2008,10,18,06,04,4.00
2008,10,18,06,05,4.00
2008,10,18,06,06,4.00
2008,10,18,06,07,3.90
2008,10,18,06,08,3.90
2008,10,18,06,09,3.90
2008,10,18,06,10,3.90
2008,10,18,06,11,3.90
2008,10,18,06,12,3.90
2008,10,18,06,13,4.00
2008,10,18,06,14,4.00
2008,10,18,06,15,4.00
2008,10,18,06,16,4.00
2008,10,18,06,17,4.00
2008,10,18,06,18,4.00
2008,10,18,06,19,4.00
2008,10,18,06,20,4.00
2008,10,18,06,21,4.00
2008,10,18,06,22,4.00
2008,10,18,06,23,3.90
2008,10,18,06,24,3.90
2008,10,18,06,25,3.90
2008,10,18,06,26,3.90
2008,10,18,06,27,3.90
2008,10,18,06,28,3.90
2008,10,18,06,29,3.90
2008,10,18,06,30,3.80
2008,10,18,06,31,3.80
2008,10,18,06,32,3.80
2008,10,18,06,33,3.80
2008,10,18,06,34,3.80
2008,10,18,06,35,3.80
2008,10,18,06,36,3.80
2008,10,18,06,37,3.80
2008,10,18,06,38,3.80
2008,10,18,06,39,3.80
2008,10,18,06,40,3.80
2008,10,18,06,41,3.80
2008,10,18,06,42,3.80
2008,10,18,06,43,3.90
2008,10,18,06,44,3.90
2008,10,18,06,45,3.90
2008,10,18,06,46,3.90
2008,10,18,06,47,4.00
2008,10,18,06,48,4.00
2008,10,18,06,49,4.00
2008,10,18,06,50,4.00
2008,10,18,06,51,4.00
2008,10,18,06,52,4.00
2008,10,18,06,53,4.00
2008,10,18,06,54,4.00
2008,10,18,06,55,4.00
2008,10,18,06,56,4.00
2008,10,18,06,57,4.00
2008,10,18,06,58,4.00
2008,10,18,06,59,4.00
2008,10,18,07,00,4.00
2008,10,18,07,01,4.00
2008,10,18,07,02,4.00
2008,10,18,07,03,3.90
2008,10,18,07,04,3.90
2008,10,18,07,05,4.00
2008,10,18,07,06,4.00
2008,10,18,07,07,4.00
2008,10,18,07,08,4.00
2008,10,18,07,09,3.90
2008,10,18,07,10,3.90
2008,10,18,07,11,3.90
2008,10,18,07,12,3.90
2008,10,18,07,13,4.00
2008,10,18,07,14,4.00
2008,10,18,07,15,4.00
2008,10,18,07,16,4.00
2008,10,18,07,17,4.00
2008,10,18,07,18,4.00
2008,10,18,07,19,4.00
2008,10,18,07,20,4.00
2008,10,18,07,21,4.00
2008,10,18,07,22,4.00
2008,10,18,07,23,4.00
2008,10,18,07,24,4.00
2008,10,18,07,25,4.00
2008,10,18,07,26,4.00
2008,10,18,07,27,4.00
2008,10,18,07,28,4.00
2008,10,18,07,29,4.00
2008,10,18,07,30,4.00
2008,10,18,07,31,4.00
2008,10,18,07,32,4.00
2008,10,18,07,33,4.00
2008,10,18,07,34,4.00
2008,10,18,07,35,4.00
2008,10,18,07,36,4.00
2008,10,18,07,37,4.00
2008,10,18,07,38,4.00
2008,10,18,07,39,4.00
2008,10,18,07,40,4.00
2008,10,18,07,41,4.10
2008,10,18,07,42,4.10
2008,10,18,07,43,4.10
2008,10,18,07,44,4.10
2008,10,18,07,45,4.20
2008,10,18,07,46,4.20
2008,10,18,07,47,4.20
2008,10,18,07,48,4.20
2008,10,18,07,49,4.20
2008,10,18,07,50,4.30
2008,10,18,07,51,4.40
2008,10,18,07,52,4.40
2008,10,18,07,53,4.50
2008,10,18,07,54,4.50
2008,10,18,07,55,4.60
2008,10,18,07,56,4.60
2008,10,18,07,57,4.60
2008,10,18,07,58,4.60
2008,10,18,07,59,4.70
2008,10,18,08,00,4.80
2008,10,18,08,01,4.80
2008,10,18,08,02,4.80
2008,10,18,08,03,4.90
2008,10,18,08,04,4.90
2008,10,18,08,05,5.00
2008,10,18,08,06,5.10
2008,10,18,08,07,5.10
2008,10,18,08,08,5.10
2008,10,18,08,09,5.10
2008,10,18,08,10,5.20
2008,10,18,08,11,5.30
2008,10,18,08,12,5.30
2008,10,18,08,13,5.40
2008,10,18,08,14,5.50
2008,10,18,08,15,5.70
2008,10,18,08,16,5.70
2008,10,18,08,17,5.80
2008,10,18,08,18,5.90
2008,10,18,08,19,6.00
2008,10,18,08,20,6.00
2008,10,18,08,21,6.10
2008,10,18,08,22,6.20
2008,10,18,08,23,6.30
2008,10,18,08,24,6.40
2008,10,18,08,25,6.40
2008,10,18,08,26,6.50
2008,10,18,08,27,6.60
2008,10,18,08,28,6.70
2008,10,18,08,29,6.80
2008,10,18,08,30,6.80
2008,10,18,08,31,6.80
2008,10,18,08,32,6.90
2008,10,18,08,33,7.00
2008,10,18,08,34,7.00
2008,10,18,08,35,7.10
2008,10,18,08,36,7.10
2008,10,18,08,37,7.20
2008,10,18,08,38,7.20
2008,10,18,08,39,7.30
2008,10,18,08,40,7.30
2008,10,18,08,41,7.30
2008,10,18,08,42,7.30
2008,10,18,08,43,7.40
2008,10,18,08,44,7.40
2008,10,18,08,45,7.50
2008,10,18,08,46,7.50
2008,10,18,08,47,7.50
2008,10,18,08,48,7.60
2008,10,18,08,49,7.60
2008,10,18,08,50,7.70
2008,10,18,08,51,7.70
2008,10,18,08,52,7.70
2008,10,18,08,53,7.80
2008,10,18,08,54,7.80
2008,10,18,08,55,7.80
2008,10,18,08,56,7.80
2008,10,18,08,57,7.80
2008,10,18,08,58,7.80
2008,10,18,08,59,7.90
2008,10,18,09,00,7.90
2008,10,18,09,01,7.90
2008,10,18,09,02,7.90
2008,10,18,09,03,7.90
2008,10,18,09,04,8.00
2008,10,18,09,05,8.00
2008,10,18,09,06,8.00
2008,10,18,09,07,8.10
2008,10,18,09,08,8.10
2008,10,18,09,09,8.10
2008,10,18,09,10,8.20
2008,10,18,09,11,8.20
2008,10,18,09,12,8.20
2008,10,18,09,13,8.20
2008,10,18,09,14,8.20
2008,10,18,09,15,8.30
2008,10,18,09,16,8.30
2008,10,18,09,17,8.30
2008,10,18,09,18,8.30
2008,10,18,09,19,8.40
2008,10,18,09,20,8.40
2008,10,18,09,21,8.40
2008,10,18,09,22,8.40
2008,10,18,09,23,8.50
2008,10,18,09,24,8.50
2008,10,18,09,25,8.50
2008,10,18,09,26,8.50
2008,10,18,09,27,8.60
2008,10,18,09,28,8.60
2008,10,18,09,29,8.60
2008,10,18,09,30,8.70
2008,10,18,09,31,8.70
2008,10,18,09,32,8.70
2008,10,18,09,33,8.70
2008,10,18,09,34,8.70
2008,10,18,09,35,8.70
2008,10,18,09,36,8.80
2008,10,18,09,37,8.90
2008,10,18,09,38,8.90
2008,10,18,09,39,9.00
2008,10,18,09,40,9.00
2008,10,18,09,41,9.10
2008,10,18,09,42,9.10
2008,10,18,09,43,9.20
2008,10,18,09,44,9.20
2008,10,18,09,45,9.20
2008,10,18,09,46,9.30
2008,10,18,09,47,9.30
2008,10,18,09,48,9.30
2008,10,18,09,49,9.30
2008,10,18,09,50,9.30
2008,10,18,09,51,9.30
2008,10,18,09,52,9.30
2008,10,18,09,53,9.30
2008,10,18,09,54,9.40
2008,10,18,09,55,9.40
2008,10,18,09,56,9.30
2008,10,18,09,57,9.30
2008,10,18,09,58,9.30
2008,10,18,09,59,9.40
2008,10,18,10,00,9.40
2008,10,18,10,01,9.50
2008,10,18,10,02,9.50
2008,10,18,10,03,9.50
2008,10,18,10,04,9.50
2008,10,18,10,05,9.50
2008,10,18,10,06,9.60
2008,10,18,10,07,9.60
2008,10,18,10,08,9.60
2008,10,18,10,09,9.60
2008,10,18,10,10,9.60
2008,10,18,10,11,9.70
2008,10,18,10,12,9.70
2008,10,18,10,13,9.70
2008,10,18,10,14,9.70
2008,10,18,10,15,9.70
2008,10,18,10,16,9.70
2008,10,18,10,17,9.70
2008,10,18,10,18,9.70
2008,10,18,10,19,9.70
2008,10,18,10,20,9.70
2008,10,18,10,21,9.70
2008,10,18,10,22,9.70
2008,10,18,10,23,9.70
2008,10,18,10,24,9.70
2008,10,18,10,25,9.70
2008,10,18,10,26,9.70
2008,10,18,10,27,9.70
2008,10,18,10,28,9.70
2008,10,18,10,29,9.80
2008,10,18,10,30,9.80
2008,10,18,10,31,9.80
2008,10,18,10,32,9.80
2008,10,18,10,33,9.80
2008,10,18,10,34,9.90
2008,10,18,10,35,9.90
2008,10,18,10,36,9.90
2008,10,18,10,37,9.90
2008,10,18,10,38,9.90
2008,10,18,10,39,9.90
2008,10,18,10,40,9.90
2008,10,18,10,41,9.90
2008,10,18,10,42,10.00
2008,10,18,10,43,10.10
2008,10,18,10,44,10.10
2008,10,18,10,45,10.10
2008,10,18,10,46,10.10
2008,10,18,10,47,10.10
2008,10,18,10,48,10.20
2008,10,18,10,49,10.30
2008,10,18,10,50,10.40
2008,10,18,10,51,10.40
2008,10,18,10,52,10.50
2008,10,18,10,53,10.60
2008,10,18,10,54,10.60
2008,10,18,10,55,10.60
2008,10,18,10,56,10.60
2008,10,18,10,57,10.60
2008,10,18,10,58,10.60
2008,10,18,10,59,10.60
2008,10,18,11,00,10.60
2008,10,18,11,01,10.60
2008,10,18,11,02,10.70
2008,10,18,11,03,10.70
2008,10,18,11,04,10.70
2008,10,18,11,05,10.80
2008,10,18,11,06,10.80
2008,10,18,11,07,10.80
2008,10,18,11,08,10.80
2008,10,18,11,09,10.80
2008,10,18,11,10,10.80
2008,10,18,11,11,10.80
2008,10,18,11,12,10.70
2008,10,18,11,13,10.70
2008,10,18,11,14,10.60
2008,10,18,11,15,10.60
2008,10,18,11,16,10.60
2008,10,18,11,17,10.50
2008,10,18,11,18,10.40
2008,10,18,11,19,10.60
2008,10,18,11,20,10.60
2008,10,18,11,21,10.60
2008,10,18,11,22,10.60
2008,10,18,11,23,10.60
2008,10,18,11,24,10.60
2008,10,18,11,25,10.60
2008,10,18,11,26,10.70
2008,10,18,11,27,10.70
2008,10,18,11,28,10.70
2008,10,18,11,29,10.60
2008,10,18,11,30,10.60
2008,10,18,11,31,10.60
2008,10,18,11,32,10.60
2008,10,18,11,33,10.60
2008,10,18,11,34,10.60
2008,10,18,11,35,10.60
2008,10,18,11,36,10.60
2008,10,18,11,37,10.60
2008,10,18,11,38,10.60
2008,10,18,11,39,10.60
2008,10,18,11,40,10.60
2008,10,18,11,41,10.60
2008,10,18,11,42,10.60
2008,10,18,11,43,10.60
2008,10,18,11,44,10.60
2008,10,18,11,45,10.60
2008,10,18,11,46,10.70
2008,10,18,11,47,10.70
2008,10,18,11,48,10.80
2008,10,18,11,49,10.80
2008,10,18,11,50,10.80
2008,10,18,11,51,10.80
2008,10,18,11,52,10.80
2008,10,18,11,53,10.90
2008,10,18,11,54,10.90
2008,10,18,11,55,11.00
2008,10,18,11,56,11.10
2008,10,18,11,57,11.10
2008,10,18,11,58,11.10
2008,10,18,11,59,11.10
2008,10,18,12,00,11.10
2008,10,18,12,01,11.10
2008,10,18,12,02,11.10
2008,10,18,12,03,11.10
2008,10,18,12,04,11.10
2008,10,18,12,05,11.10
2008,10,18,12,06,11.10
2008,10,18,12,07,11.10
2008,10,18,12,08,11.10
2008,10,18,12,09,11.10
2008,10,18,12,10,11.10
2008,10,18,12,11,11.00
2008,10,18,12,12,10.90
2008,10,18,12,13,10.90
2008,10,18,12,14,10.80
2008,10,18,12,15,10.80
2008,10,18,12,16,10.70
2008,10,18,12,17,10.70
2008,10,18,12,18,10.60
2008,10,18,12,19,10.60
2008,10,18,12,20,10.60
2008,10,18,12,21,10.70
2008,10,18,12,22,10.70
2008,10,18,12,23,10.70
2008,10,18,12,24,10.80
2008,10,18,12,25,10.80
2008,10,18,12,26,10.80
2008,10,18,12,27,10.90
2008,10,18,12,28,10.90
2008,10,18,12,29,10.90
2008,10,18,12,30,10.90
2008,10,18,12,31,10.90
2008,10,18,12,32,10.90
2008,10,18,12,33,10.90
2008,10,18,12,34,10.90
2008,10,18,12,35,10.90
2008,10,18,12,36,10.90
2008,10,18,12,37,11.00
2008,10,18,12,38,11.10
2008,10,18,12,39,11.10
2008,10,18,12,40,11.20
2008,10,18,12,41,11.30
2008,10,18,12,42,11.30
2008,10,18,12,43,11.30
2008,10,18,12,44,11.30
2008,10,18,12,45,11.20
2008,10,18,12,46,11.20
2008,10,18,12,47,11.20
2008,10,18,12,48,11.20
2008,10,18,12,49,11.20
2008,10,18,12,50,11.20
2008,10,18,12,51,11.20
2008,10,18,12,52,11.20
2008,10,18,12,53,11.30
2008,10,18,12,54,11.30
2008,10,18,12,55,11.40
2008,10,18,12,56,11.40
2008,10,18,12,57,11.40
2008,10,18,12,58,11.50
2008,10,18,12,59,11.60
2008,10,18,13,00,11.60
2008,10,18,13,01,11.60
2008,10,18,13,02,11.60
2008,10,18,13,03,11.60
2008,10,18,13,04,11.60
2008,10,18,13,05,11.60
2008,10,18,13,06,11.70
2008,10,18,13,07,11.70
2008,10,18,13,08,11.60
2008,10,18,13,09,11.60
2008,10,18,13,10,11.60
2008,10,18,13,11,11.60
2008,10,18,13,12,11.60
2008,10,18,13,13,11.60
2008,10,18,13,14,11.60
2008,10,18,13,15,11.60
2008,10,18,13,16,11.60
2008,10,18,13,17,11.50
2008,10,18,13,18,11.40
2008,10,18,13,19,11.40
2008,10,18,13,20,11.40
2008,10,18,13,21,11.40
2008,10,18,13,22,11.60
2008,10,18,13,23,11.60
2008,10,18,13,24,11.60
2008,10,18,13,25,11.60
2008,10,18,13,26,11.60
2008,10,18,13,27,11.50
2008,10,18,13,28,11.40
2008,10,18,13,29,11.40
2008,10,18,13,30,11.40
2008,10,18,13,31,11.40
2008,10,18,13,32,11.50
2008,10,18,13,33,11.60
2008,10,18,13,34,11.50
2008,10,18,13,35,11.50
2008,10,18,13,36,11.60
2008,10,18,13,37,11.60
2008,10,18,13,38,11.50
2008,10,18,13,39,11.40
2008,10,18,13,40,11.50
2008,10,18,13,41,11.60
2008,10,18,13,42,11.60
2008,10,18,13,43,11.60
2008,10,18,13,44,11.60
2008,10,18,13,45,11.60
2008,10,18,13,46,11.60
2008,10,18,13,47,11.60
2008,10,18,13,48,11.70
2008,10,18,13,49,11.70
2008,10,18,13,50,11.80
2008,10,18,13,51,11.70
2008,10,18,13,52,11.70
2008,10,18,13,53,11.70
2008,10,18,13,54,11.70
2008,10,18,13,55,11.70
2008,10,18,13,56,11.70
2008,10,18,13,57,11.60
2008,10,18,13,58,11.60
2008,10,18,13,59,11.60
2008,10,18,14,00,11.70
2008,10,18,14,01,11.70
2008,10,18,14,02,11.70
2008,10,18,14,03,11.70
2008,10,18,14,04,11.80
2008,10,18,14,05,11.80
2008,10,18,14,06,11.80
2008,10,18,14,07,11.80
2008,10,18,14,08,11.80
2008,10,18,14,09,11.80
2008,10,18,14,10,11.80
2008,10,18,14,11,11.80
2008,10,18,14,12,11.80
2008,10,18,14,13,11.80
2008,10,18,14,14,11.80
2008,10,18,14,15,11.80
2008,10,18,14,16,11.80
2008,10,18,14,17,11.80
2008,10,18,14,18,11.80
2008,10,18,14,19,11.80
2008,10,18,14,20,11.80
2008,10,18,14,21,11.80
2008,10,18,14,22,11.80
2008,10,18,14,23,11.80
2008,10,18,14,24,11.80
2008,10,18,14,25,11.80
2008,10,18,14,26,11.80
2008,10,18,14,27,11.80
2008,10,18,14,28,11.80
2008,10,18,14,29,11.70
2008,10,18,14,30,11.60
2008,10,18,14,31,11.50
2008,10,18,14,32,11.40
2008,10,18,14,33,11.50
2008,10,18,14,34,11.60
2008,10,18,14,35,11.60
2008,10,18,14,36,11.60
2008,10,18,14,37,11.60
2008,10,18,14,38,11.60
2008,10,18,14,39,11.60
2008,10,18,14,40,11.60
2008,10,18,14,41,11.60
2008,10,18,14,42,11.60
2008,10,18,14,43,11.60
2008,10,18,14,44,11.70
2008,10,18,14,45,11.70
2008,10,18,14,46,11.70
2008,10,18,14,47,11.80
2008,10,18,14,48,11.80
2008,10,18,14,49,11.90
2008,10,18,14,50,11.90
2008,10,18,14,51,12.00
2008,10,18,14,52,12.00
2008,10,18,14,53,11.90
2008,10,18,14,54,11.90
2008,10,18,14,55,11.90
2008,10,18,14,56,11.90
2008,10,18,14,57,11.90
2008,10,18,14,58,11.80
2008,10,18,14,59,11.80
2008,10,18,15,00,11.80
2008,10,18,15,01,11.80
2008,10,18,15,02,11.90
2008,10,18,15,03,11.90
2008,10,18,15,04,11.90
2008,10,18,15,05,11.90
2008,10,18,15,06,11.90
2008,10,18,15,07,11.90
2008,10,18,15,08,11.90
2008,10,18,15,09,11.80
2008,10,18,15,10,11.80
2008,10,18,15,11,11.80
2008,10,18,15,12,11.80
2008,10,18,15,13,11.80
2008,10,18,15,14,11.80
2008,10,18,15,15,11.80
2008,10,18,15,16,11.80
2008,10,18,15,17,11.80
2008,10,18,15,18,11.80
2008,10,18,15,19,11.80
2008,10,18,15,20,11.80
2008,10,18,15,21,11.80
2008,10,18,15,22,11.80
2008,10,18,15,23,11.80
2008,10,18,15,24,11.80
2008,10,18,15,25,11.70
2008,10,18,15,26,11.70
2008,10,18,15,27,11.60
2008,10,18,15,28,11.40
2008,10,18,15,29,11.40
2008,10,18,15,30,11.30
2008,10,18,15,31,11.30
2008,10,18,15,32,11.10
2008,10,18,15,33,11.00
2008,10,18,15,34,10.90
2008,10,18,15,35,10.80
2008,10,18,15,36,10.80
2008,10,18,15,37,10.70
2008,10,18,15,38,10.60
2008,10,18,15,39,10.60
2008,10,18,15,40,10.50
2008,10,18,15,41,10.40
2008,10,18,15,42,10.40
2008,10,18,15,43,10.40
2008,10,18,15,44,10.40
2008,10,18,15,45,10.40
2008,10,18,15,46,10.40
2008,10,18,15,47,10.40
2008,10,18,15,48,10.50
2008,10,18,15,49,10.60
2008,10,18,15,50,10.60
2008,10,18,15,51,10.60
2008,10,18,15,52,10.60
2008,10,18,15,53,10.60
2008,10,18,15,54,10.70
2008,10,18,15,55,10.70
2008,10,18,15,56,10.80
2008,10,18,15,57,10.80
2008,10,18,15,58,10.90
2008,10,18,15,59,10.90
2008,10,18,16,00,10.90
2008,10,18,16,01,11.10
2008,10,18,16,02,11.10
2008,10,18,16,03,11.10
2008,10,18,16,04,11.20
2008,10,18,16,05,11.20
2008,10,18,16,06,11.30
2008,10,18,16,07,11.30
2008,10,18,16,08,11.40
2008,10,18,16,09,11.40
2008,10,18,16,10,11.40
2008,10,18,16,11,11.40
2008,10,18,16,12,11.50
2008,10,18,16,13,11.50
2008,10,18,16,14,11.40
2008,10,18,16,15,11.40
2008,10,18,16,16,11.40
2008,10,18,16,17,11.30
2008,10,18,16,18,11.30
2008,10,18,16,19,11.30
2008,10,18,16,20,11.30
2008,10,18,16,21,11.30
2008,10,18,16,22,11.20
2008,10,18,16,23,11.20
2008,10,18,16,24,11.10
2008,10,18,16,25,11.10
2008,10,18,16,26,11.10
2008,10,18,16,27,11.10
2008,10,18,16,28,11.10
2008,10,18,16,29,11.00
2008,10,18,16,30,10.90
2008,10,18,16,31,10.90
2008,10,18,16,32,10.90
2008,10,18,16,33,10.90
2008,10,18,16,34,10.90
2008,10,18,16,35,10.90
2008,10,18,16,36,10.90
2008,10,18,16,37,10.90
2008,10,18,16,38,10.90
2008,10,18,16,39,10.90
2008,10,18,16,40,10.90
2008,10,18,16,41,10.90
2008,10,18,16,42,10.90
2008,10,18,16,43,11.00
2008,10,18,16,44,11.10
2008,10,18,16,45,11.10
2008,10,18,16,46,11.10
2008,10,18,16,47,11.10
2008,10,18,16,48,11.10
2008,10,18,16,49,10.90
2008,10,18,16,50,11.10
2008,10,18,16,51,11.10
2008,10,18,16,52,11.10
2008,10,18,16,53,11.10
2008,10,18,16,54,11.10
2008,10,18,16,55,11.20
2008,10,18,16,56,11.20
2008,10,18,16,57,11.20
2008,10,18,16,58,11.30
2008,10,18,16,59,11.30
2008,10,18,17,00,11.30
2008,10,18,17,01,11.30
2008,10,18,17,02,11.30
2008,10,18,17,03,11.30
2008,10,18,17,04,11.30
2008,10,18,17,05,11.30
2008,10,18,17,06,11.30
2008,10,18,17,07,11.30
2008,10,18,17,08,11.30
2008,10,18,17,09,11.30
2008,10,18,17,10,11.30
2008,10,18,17,11,11.30
2008,10,18,17,12,11.30
2008,10,18,17,13,11.30
2008,10,18,17,14,11.30
2008,10,18,17,15,11.30
2008,10,18,17,16,11.30
2008,10,18,17,17,11.30
2008,10,18,17,18,11.30
2008,10,18,17,19,11.30
2008,10,18,17,20,11.40
2008,10,18,17,21,11.40
2008,10,18,17,22,11.40
2008,10,18,17,23,11.50
2008,10,18,17,24,11.60
2008,10,18,17,25,11.60
2008,10,18,17,26,11.60
2008,10,18,17,27,11.60
2008,10,18,17,28,11.60
2008,10,18,17,29,11.60
2008,10,18,17,30,11.60
2008,10,18,17,31,11.60
2008,10,18,17,32,11.60
2008,10,18,17,33,11.60
2008,10,18,17,34,11.60
2008,10,18,17,35,11.60
2008,10,18,17,36,11.50
2008,10,18,17,37,11.40
2008,10,18,17,38,11.40
2008,10,18,17,39,11.40
2008,10,18,17,40,11.40
2008,10,18,17,41,11.40
2008,10,18,17,42,11.40
2008,10,18,17,43,11.40
2008,10,18,17,44,11.40
2008,10,18,17,45,11.40
2008,10,18,17,46,11.30
2008,10,18,17,47,11.30
2008,10,18,17,48,11.20
2008,10,18,17,49,11.20
2008,10,18,17,50,11.10
2008,10,18,17,51,11.00
2008,10,18,17,52,10.90
2008,10,18,17,53,10.90
2008,10,18,17,54,10.80
2008,10,18,17,55,10.80
2008,10,18,17,56,10.70
2008,10,18,17,57,10.60
2008,10,18,17,58,10.60
2008,10,18,17,59,10.50
2008,10,18,18,00,10.40
2008,10,18,18,01,10.30
2008,10,18,18,02,10.20
2008,10,18,18,03,10.20
2008,10,18,18,04,10.10
2008,10,18,18,05,10.10
2008,10,18,18,06,9.90
2008,10,18,18,07,9.90
2008,10,18,18,08,9.90
2008,10,18,18,09,9.80
2008,10,18,18,10,9.70
2008,10,18,18,11,9.70
2008,10,18,18,12,9.60
2008,10,18,18,13,9.50
2008,10,18,18,14,9.50
2008,10,18,18,15,9.40
2008,10,18,18,16,9.30
2008,10,18,18,17,9.20
2008,10,18,18,18,9.20
2008,10,18,18,19,9.10
2008,10,18,18,20,9.00
2008,10,18,18,21,9.00
2008,10,18,18,22,8.90
2008,10,18,18,23,8.80
2008,10,18,18,24,8.80
2008,10,18,18,25,8.70
2008,10,18,18,26,8.70
2008,10,18,18,27,8.60
2008,10,18,18,28,8.60
2008,10,18,18,29,8.50
2008,10,18,18,30,8.50
2008,10,18,18,31,8.40
2008,10,18,18,32,8.30
2008,10,18,18,33,8.20
2008,10,18,18,34,8.20